Weather History for KNQI - June, 2013

Change the Weather History Date:

Tuesday, June 25, 2013

  Actual Average Record
Temperature  
Mean Temperature 88 °F -  
Max Temperature 98 °F 91 °F 104 °F (2012)
Min Temperature 80 °F 73 °F 71 °F (2001)
Cooling Degree Days 24    
Growing Degree Days 38 (Base 50)    
Moisture  
Dew Point 75 °F    
Average Humidity 69    
Maximum Humidity 85    
Minimum Humidity 46    
Precipitation  
Precipitation 0.00 in - - ()
Sea Level Pressure  
Sea Level Pressure 29.94 in    
Wind  
Wind Speed 17 mph (SSE)    
Max Wind Speed 26 mph    
Max Gust Speed 34 mph    
Visibility 10 miles    
Events      
Averages and records for this station are not official NWS values.
T = Trace of Precipitation, MM = Missing Value Source: NWS Daily Summary

Daily Weather History Graph

Daily Weather History Graph

Search for Another Location

Airport or City:

Trip Planner

Search our weather history database for the weather conditions in past years. The results will help you decide how hot, cold, wet, or windy it might be!

Date:

Astronomy

Jun. 25, 2013 Rise Set
Actual Time 6:37 AM CDT 8:30 PM CDT
Civil Twilight 6:11 AM CDT 8:56 PM CDT
Nautical Twilight 5:39 AM CDT 9:28 PM CDT
Astronomical Twilight 5:05 AM CDT 10:02 PM CDT
Moon 10:34 PM CDT (6/25) 9:05 AM CDT (6/25)
Length of Visible Light 14h 45m
Length of Day
13h 52m
Waning Gibbous, 92% of the Moon is Illuminated
Jun 25
Waning Gibbous
Jun 29
Last Quarter
Jul 8
New
Jul 15
First Quarter
Jul 22
Full

Hourly Weather History & Observations

Time (CDT) Temp. Heat Index Dew Point Humidity Pressure Visibility Wind Dir Wind Speed Gust Speed Precip Events Conditions
12:56 AM 82.9 °F 91.8 °F 77.0 °F 82% 29.98 in 10.0 mi SSE 15.0 mph - N/A   Overcast
1:36 AM 82.4 °F 90.9 °F 77.0 °F 84% 29.98 in 10.0 mi SSE 15.0 mph 21.9 mph N/A   Scattered Clouds
1:56 AM 82.0 °F 90.2 °F 77.0 °F 85% 29.97 in 10.0 mi SSE 16.1 mph - N/A   Partly Cloudy
2:56 AM 82.0 °F 89.4 °F 75.9 °F 82% 29.96 in 10.0 mi SSE 15.0 mph - N/A   Clear
3:56 AM 81.0 °F 86.7 °F 75.0 °F 82% 29.96 in 10.0 mi SSE 12.7 mph - N/A   Clear
4:56 AM 80.1 °F 85.1 °F 75.0 °F 85% 29.96 in 10.0 mi SSE 11.5 mph - N/A   Clear
5:56 AM 80.1 °F 85.1 °F 75.0 °F 85% 29.96 in 10.0 mi SSE 11.5 mph - N/A   Clear
6:56 AM 80.1 °F 85.1 °F 75.0 °F 85% 29.98 in 10.0 mi SSE 10.4 mph - N/A   Mostly Cloudy
7:56 AM 82.9 °F 90.2 °F 75.0 °F 77% 29.98 in 10.0 mi SSE 12.7 mph - N/A   Mostly Cloudy
8:13 AM 84.2 °F 92.3 °F 75.2 °F 74% 29.99 in 10.0 mi SSE 16.1 mph - N/A   Mostly Cloudy
8:42 AM 86.0 °F 95.1 °F 75.2 °F 70% 29.99 in 10.0 mi South 19.6 mph - N/A   Mostly Cloudy
8:56 AM 86.0 °F 95.1 °F 75.0 °F 70% 29.99 in 10.0 mi SSE 18.4 mph 29.9 mph N/A   Mostly Cloudy
9:56 AM 90.0 °F 96.9 °F 72.0 °F 55% 29.98 in 10.0 mi SSE 19.6 mph 25.3 mph N/A   Mostly Cloudy
10:56 AM 94.8 °F 102.1 °F 71.1 °F 46% 29.97 in 10.0 mi South 21.9 mph 25.3 mph N/A   Mostly Cloudy
11:56 AM 93.0 °F 100.7 °F 72.0 °F 50% 29.96 in 10.0 mi SE 18.4 mph 25.3 mph N/A   Mostly Cloudy
12:56 PM 97.0 °F 107.7 °F 73.9 °F 47% 29.94 in 10.0 mi ESE 19.6 mph 29.9 mph N/A   Mostly Cloudy
1:56 PM 97.0 °F 109.3 °F 75.0 °F 49% 29.93 in 10.0 mi SE 23.0 mph 31.1 mph N/A   Mostly Cloudy
2:56 PM 97.0 °F 109.3 °F 75.0 °F 49% 29.92 in 10.0 mi SE 24.2 mph 31.1 mph N/A   Scattered Clouds
3:56 PM 95.0 °F 105.2 °F 73.9 °F 50% 29.91 in 10.0 mi SE 26.5 mph 33.4 mph N/A   Scattered Clouds
4:56 PM 93.0 °F 103.2 °F 73.9 °F 54% 29.89 in 10.0 mi SE 24.2 mph 34.5 mph N/A   Scattered Clouds
5:56 PM 91.0 °F 100.4 °F 73.9 °F 57% 29.88 in 10.0 mi SE 24.2 mph 32.2 mph N/A   Partly Cloudy
6:56 PM 89.1 °F 97.0 °F 73.0 °F 59% 29.88 in 10.0 mi SE 19.6 mph 32.2 mph N/A   Clear
7:56 PM 84.9 °F 91.4 °F 73.0 °F 67% 29.89 in 10.0 mi SE 20.7 mph 27.6 mph N/A   Clear
8:56 PM 82.9 °F 90.2 °F 75.0 °F 77% 29.90 in 10.0 mi SE 16.1 mph 24.2 mph N/A   Partly Cloudy
9:56 PM 82.9 °F 90.8 °F 75.9 °F 79% 29.90 in 10.0 mi SE 17.3 mph 24.2 mph N/A   Partly Cloudy
10:56 PM 82.0 °F 89.4 °F 75.9 °F 82% 29.91 in 10.0 mi SSE 17.3 mph 27.6 mph N/A   Partly Cloudy
11:56 PM 82.0 °F 88.6 °F 75.0 °F 79% 29.92 in 10.0 mi SSE 13.8 mph - N/A   Partly Cloudy